Vorticity
7 7 15 6 5 15 9 10 12 6 14 12 9 7 6 5 6 6 5 5 4 4 5 5 5 4 5 5 5 5 4 5 9 8 7 7 7 10
5 -9 1 5 6 11 7 11 10 6 8 8 12 9 8 7 6 6 6 5 4 5 5 5 5 5 5 5 5 6 4 1 12 9 8 7 7 9
3 3 7 10 4 8 10 11 9 7 7 10 5 8 7 6 5 5 6 4 5 5 5 5 5 6 5 5 5 6 4 -3 13 9 7 6 8 7
1 15 -3 -13 3 6 9 11 10 9 7 5 8 1 5 5 4 5 5 5 5 6 6 5 6 6 5 5 5 6 5 -3 16 8 8 7 8 7
8 8 5 8 5 7 8 10 7 10 7 8 4 9 6 5 6 6 7 6 6 6 6 5 6 6 6 5 5 6 5 -1 15 9 7 7 8 7
12 6 4 3 11 10 8 9 8 9 8 8 7 4 8 6 7 7 7 7 6 6 6 6 6 6 6 5 6 7 7 -3 -3 5 10 8 7 7
11 7 8 -6 12 14 10 10 8 6 8 7 5 6 7 8 10 10 10 6 5 6 7 9 5 6 6 6 6 8 8 -1 -2 12 19 16 7 7
-1 9 10 4 3 13 10 10 11 11 9 8 8 8 8 8 8 8 7 4 6 11 7 6 7 7 6 6 7 10 7 -13 -0 19 20 8 6 7
-0 7 9 4 -1 9 9 9 11 8 5 9 12 10 10 9 8 7 6 6 7 6 6 7 8 8 6 7 8 8 5 -12 -3 23 27 7 7 7
-4 4 5 7 -0 7 10 9 10 7 5 6 6 1 2 3 5 4 2 3 5 7 9 10 8 7 7 7 7 8 -1 -8 25 13 12 8 8 8
-12 9 -8 6 2 3 9 12 8 12 8 5 4 5 6 5 5 7 7 8 9 9 8 6 6 8 7 7 8 7 -5 14 11 19 9 8 8 10
37 7 5 3 -1 -3 6 15 13 10 13 7 4 4 6 6 7 8 5 5 7 8 9 7 6 6 7 7 8 5 -15 24 10 14 8 8 8 11
1 56 6 1 -2 -4 1 8 21 10 10 14 12 9 7 6 7 7 4 6 7 7 7 6 9 8 9 10 11 -7 14 13 10 11 10 8 8 11
29 -20 17 5 8 -1 -1 2 5 18 3 7 14 13 9 7 6 3 5 6 7 9 8 7 8 6 8 8 2 12 18 5 14 11 9 7 9 10
43 34 24 6 7 7 5 3 6 11 -4 15 11 12 8 7 5 6 6 7 8 8 7 7 7 6 10 4 11 9 12 9 15 10 8 8 10 10
32 22 20 -1 1 9 4 6 8 5 -1 14 12 12 8 6 7 8 7 8 8 7 5 9 6 6 5 8 8 10 8 15 10 9 6 8 10 9
21 20 -1 3 15 1 4 -1 6 8 4 3 11 9 8 7 8 9 9 8 8 9 8 6 -4 4 14 11 9 7 13 11 10 7 8 8 9 9
9 19 7 -0 3 4 11 2 5 6 8 6 12 8 10 10 8 8 14 14 10 8 4 2 14 20 9 6 5 12 11 12 8 6 8 11 9 8
28 3 23 -4 6 9 -11 9 -3 13 11 1 -5 14 5 -6 34 1 -1 6 5 5 21 26 20 11 4 5 8 11 8 11 7 6 8 11 9 7
12 25 21 -5 -5 5 -11 7 4 13 3 3 -2 2 2 6 5 3 -3 8 3 11 15 19 12 4 3 8 13 10 9 10 7 7 10 10 7 8
36 16 15 -2 21 5 -7 11 6 15 5 13 7 -16 11 -3 1 7 9 1 5 17 15 16 3 3 6 11 10 8 11 8 7 9 10 10 8 10
7 25 20 -1 12 17 -16 7 18 14 10 -0 3 10 8 6 14 -0 4 2 21 19 23 6 3 5 7 9 9 9 10 8 8 10 10 8 8 11
6 9 8 25 15 -12 9 -10 11 14 8 4 4 9 1 -3 24 5 2 14 14 30 11 3 3 6 10 9 10 8 9 9 10 10 10 7 9 9
Height
3106 3114 3121 3128 3132 3136 3139 3145 3150 3154 3160 3166 3170 3173 3176 3179 3182 3186 3188 3189 3190 3190 3190 3190 3189 3188 3187 3186 3183 3182 3178 3174 3169 3165 3160 3157 3153 3147
3099 3107 3116 3121 3127 3130 3136 3140 3145 3150 3155 3163 3167 3170 3173 3176 3179 3182 3185 3186 3187 3187 3187 3187 3186 3185 3184 3183 3181 3178 3175 3171 3166 3162 3158 3154 3149 3144
3091 3100 3109 3116 3122 3126 3131 3135 3141 3146 3151 3157 3162 3166 3169 3173 3176 3179 3181 3183 3184 3184 3184 3184 3183 3183 3181 3180 3177 3175 3171 3168 3163 3159 3155 3151 3147 3141
3086 3094 3101 3109 3115 3121 3127 3132 3138 3143 3148 3153 3157 3160 3165 3169 3172 3174 3177 3178 3180 3180 3180 3180 3179 3179 3178 3176 3174 3171 3168 3165 3161 3156 3151 3147 3142 3137
3078 3087 3095 3102 3109 3115 3122 3127 3133 3138 3144 3148 3153 3157 3161 3164 3167 3171 3172 3174 3175 3175 3176 3176 3175 3175 3174 3172 3170 3167 3165 3162 3158 3153 3148 3143 3138 3133
3074 3083 3091 3098 3105 3112 3117 3123 3129 3133 3138 3143 3147 3151 3156 3160 3163 3165 3167 3169 3171 3171 3171 3171 3171 3170 3169 3167 3165 3163 3160 3157 3154 3150 3145 3140 3134 3129
3065 3075 3085 3094 3101 3107 3113 3118 3124 3129 3134 3139 3142 3148 3152 3155 3158 3162 3164 3165 3165 3166 3167 3167 3166 3165 3164 3162 3160 3159 3156 3153 3150 3145 3139 3134 3129 3124
3058 3069 3080 3088 3094 3101 3106 3113 3120 3126 3131 3135 3140 3144 3148 3152 3154 3157 3159 3159 3161 3163 3162 3162 3161 3160 3159 3157 3155 3154 3151 3149 3143 3139 3134 3129 3125 3121
3051 3064 3072 3081 3088 3094 3100 3107 3112 3118 3124 3131 3137 3141 3143 3148 3151 3152 3153 3155 3156 3156 3155 3156 3156 3155 3154 3152 3150 3148 3146 3142 3137 3132 3128 3125 3121 3117
3047 3057 3067 3075 3082 3088 3094 3101 3107 3112 3118 3124 3126 3130 3135 3139 3143 3145 3147 3149 3149 3149 3150 3151 3150 3149 3148 3146 3145 3143 3140 3136 3132 3127 3124 3121 3117 3113
3041 3049 3059 3069 3076 3083 3090 3096 3102 3108 3111 3115 3120 3126 3130 3133 3136 3139 3142 3143 3144 3145 3144 3145 3145 3143 3142 3141 3139 3138 3135 3131 3126 3122 3119 3116 3113 3109
3034 3043 3051 3063 3070 3077 3084 3091 3096 3102 3106 3110 3114 3119 3124 3128 3132 3134 3135 3137 3137 3138 3139 3139 3138 3137 3136 3135 3134 3132 3130 3125 3121 3117 3114 3112 3108 3104
3029 3034 3043 3053 3064 3071 3078 3085 3092 3097 3100 3104 3108 3113 3117 3122 3125 3127 3128 3130 3130 3131 3132 3132 3132 3131 3129 3129 3128 3127 3124 3119 3116 3113 3110 3106 3103 3101
3023 3034 3042 3050 3058 3065 3071 3078 3084 3089 3093 3096 3100 3105 3110 3115 3118 3119 3121 3122 3123 3124 3125 3125 3125 3124 3124 3122 3123 3121 3117 3114 3110 3107 3104 3101 3098 3094
3018 3030 3040 3048 3054 3059 3065 3070 3076 3081 3085 3089 3095 3099 3104 3108 3109 3110 3113 3115 3115 3116 3118 3118 3118 3118 3117 3116 3116 3114 3111 3108 3104 3101 3099 3096 3092 3087
3010 3020 3030 3039 3047 3052 3056 3061 3069 3074 3080 3085 3089 3092 3096 3098 3101 3103 3105 3107 3108 3109 3111 3111 3111 3111 3110 3110 3109 3107 3104 3101 3099 3096 3093 3090 3087 3083
3002 3008 3017 3023 3030 3038 3047 3055 3062 3066 3070 3076 3081 3084 3087 3090 3093 3096 3098 3099 3101 3103 3104 3103 3104 3103 3103 3102 3101 3099 3097 3095 3093 3091 3088 3084 3082 3078
2994 3001 3009 3016 3024 3033 3041 3047 3054 3059 3064 3070 3074 3077 3080 3083 3086 3088 3090 3091 3093 3094 3095 3096 3096 3096 3095 3095 3094 3092 3091 3089 3088 3085 3082 3079 3075 3071
2985 2991 3000 3008 3018 3026 3034 3039 3047 3053 3059 3063 3067 3070 3073 3075 3077 3080 3082 3084 3084 3084 3087 3088 3088 3089 3088 3087 3087 3086 3085 3083 3082 3080 3077 3075 3072 3068
2978 2983 2991 3001 3010 3019 3026 3033 3038 3044 3049 3054 3058 3062 3065 3068 3070 3072 3074 3075 3075 3075 3079 3079 3081 3082 3081 3081 3080 3079 3078 3077 3076 3074 3072 3069 3066 3062
2970 2975 2984 2994 3003 3012 3019 3024 3030 3037 3041 3045 3049 3053 3056 3060 3061 3062 3064 3064 3064 3068 3070 3072 3074 3074 3074 3074 3073 3073 3072 3071 3070 3068 3066 3064 3061 3057
2963 2969 2977 2986 2995 3002 3010 3016 3021 3026 3031 3036 3040 3044 3047 3050 3052 3052 3052 3053 3055 3060 3063 3064 3065 3067 3068 3067 3067 3067 3067 3066 3064 3062 3060 3058 3056 3053
2957 2963 2971 2978 2985 2994 3001 3006 3011 3016 3022 3026 3030 3033 3037 3039 3041 3041 3041 3043 3049 3053 3055 3057 3059 3060 3060 3060 3061 3061 3061 3059 3058 3056 3055 3052 3049 3046